Dati Storici

Data ora Umidita' aria (%) Temperatura aria (°C) Rad globale (W/m²) Gonioanemometro (°) Tacoanemometro (m/s) Pioggia (mm)
14-06-2020 15:30 70 % 23.06 -61.479 3.189 0 0
14-06-2020 15:20 70.4 % 23.455 -57.693 1.781 0 0
14-06-2020 15:10 72.1 % 23.157 -62.997 2.397 0 0
14-06-2020 15:00 68 % 23.382 -61.122 5.401 0 0
14-06-2020 14:50 67 % 24.187 -56.376 2.192 0 0
14-06-2020 14:40 61 % 23.794 -59.311 1.884 0 0
14-06-2020 14:30 64.4 % 24.719 -60.12 2.142 0 0
14-06-2020 14:20 60.6 % 24.605 -60.3 2.277 0 0
14-06-2020 14:10 58.6 % 24.683 -62.437 2.218 0 0
14-06-2020 14:00 60.3 % 24.694 -62.224 1.863 0 0
14-06-2020 13:50 65.3 % 24.576 -61.064 2.136 0 0
14-06-2020 13:40 61 % 24.506 -69.473 0.459 0 0
14-06-2020 13:30 59.3 % 24.361 -60.229 3.25 0 0
14-06-2020 13:20 61.7 % 23.859 -63.389 2.664 0 0
14-06-2020 13:10 63.1 % 24.135 -51.027 1.232 0 0
14-06-2020 13:00 65.9 % 23.754 -62.06 0.789 0 0
14-06-2020 12:50 67.3 % 23.088 -62.829 2.948 0 0
14-06-2020 12:40 66.4 % 23.406 -52.506 2.016 0 0
14-06-2020 12:30 67.8 % 23.795 -69.128 4.441 0 0
14-06-2020 12:20 68.6 % 23.723 -62.701 2.164 0 0

I dati sono presentati in modo automatico a scopo informativo. In seguito a verifica i dati possono subire modifiche o essere invalidati e non riportati negli archivi definitivi.